,,Stat6,,Stat2,,Stat8,,Stat9,,Stat10,,Wind1,,Wind1,
time,status,PA1M_AVG,status,PR1M_SUM,status,RH1M_AVG,status,SR1M_AVG,status,TA1M_AVG,status,W1dAve1m,status,W1sAve1m,
2005-01-12, 00:00:01,VALID,918.958,VALID,0,VALID,97.3744,VALID,0,VALID,19.6739,VALID,75,VALID,0.139137,
2005-01-12, 00:01:01,VALID,918.923,VALID,0,VALID,97.7482,VALID,0.0169808,VALID,19.6796,VALID,75,VALID,0.268601,
2005-01-12, 00:02:01,VALID,918.915,VALID,0,VALID,97.7711,VALID,0.0169808,VALID,19.6804,VALID,75,VALID,0.145349,
2005-01-12, 00:03:00,VALID,918.901,VALID,0,VALID,97.8182,VALID,0,VALID,19.6669,VALID,78,VALID,0.0174006,
2005-01-12, 00:04:01,VALID,918.881,VALID,0,VALID,97.9237,VALID,-0.0339617,VALID,19.6744,VALID,121,VALID,0.476736,
2005-01-12, 00:05:00,VALID,918.866,VALID,0,VALID,97.8767,VALID,-0.101885,VALID,19.6555,VALID,129,VALID,0.514863,
2005-01-12, 00:06:01,VALID,918.858,VALID,0,VALID,97.7546,VALID,-0.101885,VALID,19.6428,VALID,117,VALID,0.521949,
2005-01-12, 00:07:01,VALID,918.839,VALID,0,VALID,97.8449,VALID,-0.0509425,VALID,19.6235,VALID,112,VALID,0.768532,
2005-01-12, 00:08:00,VALID,918.829,VALID,0,VALID,98.0661,VALID,-0.101885,VALID,19.6133,VALID,135,VALID,0.738758,
2005-01-12, 00:09:01,VALID,918.813,VALID,0,VALID,97.7927,VALID,-0.101885,VALID,19.6205,VALID,111,VALID,0.849964,
2005-01-12, 00:10:00,VALID,918.792,VALID,0,VALID,97.8678,VALID,-0.101885,VALID,19.621,VALID,130,VALID,1.05335,
2005-01-12, 00:11:00,VALID,918.786,VALID,0,VALID,97.8652,VALID,-0.101885,VALID,19.6307,VALID,124,VALID,0.66875,
2005-01-12, 00:12:01,VALID,918.774,VALID,0,VALID,97.588,VALID,-0.101885,VALID,19.614,VALID,102,VALID,0.619048,
2005-01-12, 00:13:01,VALID,918.779,VALID,0,VALID,97.5422,VALID,-0.101885,VALID,19.6113,VALID,115,VALID,0.639737,
2005-01-12, 00:14:00,VALID,918.772,VALID,0,VALID,97.6287,VALID,-0.101885,VALID,19.6108,VALID,94,VALID,0.570135,
2005-01-12, 00:15:00,VALID,918.76,VALID,0,VALID,97.6338,VALID,-0.101885,VALID,19.6175,VALID,95,VALID,0.603819,
2005-01-12, 00:16:01,VALID,918.772,VALID,0,VALID,97.6427,VALID,-0.101885,VALID,19.6207,VALID,108,VALID,0.630556,
2005-01-12, 00:17:00,VALID,918.766,VALID,0,VALID,97.5639,VALID,-0.0849042,VALID,19.6237,VALID,106,VALID,0.516493,
2005-01-12, 00:18:00,VALID,918.769,VALID,0,VALID,97.1836,VALID,-0.118866,VALID,19.6115,VALID,106,VALID,0.292969,
2005-01-12, 00:19:01,VALID,918.78,VALID,0,VALID,97.0387,VALID,-0.0339617,VALID,19.5777,VALID,93,VALID,0.383956,
2005-01-12, 00:20:01,VALID,918.772,VALID,0,VALID,97.1353,VALID,0,VALID,19.5452,VALID,79,VALID,0.329799,
2005-01-12, 00:21:01,VALID,918.78,VALID,0,VALID,97.1468,VALID,0,VALID,19.4997,VALID,51,VALID,0.555831,
2005-01-12, 00:22:01,VALID,918.756,VALID,0,VALID,97.3299,VALID,0,VALID,19.4615,VALID,48,VALID,0.503534,
2005-01-12, 00:23:01,VALID,918.746,VALID,0,VALID,97.3579,VALID,-0.0169808,VALID,19.3996,VALID,48,VALID,0.552734,
2005-01-12, 00:24:00,VALID,918.735,VALID,0,VALID,97.6808,VALID,-0.0339617,VALID,19.371,VALID,48,VALID,0.403646,
2005-01-12, 00:25:00,VALID,918.729,VALID,0,VALID,97.9034,VALID,0,VALID,19.3482,VALID,48,VALID,0.392299,
2005-01-12, 00:26:01,VALID,918.72,VALID,0,VALID,98.1145,VALID,0,VALID,19.3517,VALID,48,VALID,0.306176,
2005-01-12, 00:27:01,VALID,918.702,VALID,0,VALID,98.1386,VALID,0,VALID,19.3318,VALID,48,VALID,0.31901,
2005-01-12, 00:28:01,VALID,918.689,VALID,0,VALID,97.8868,VALID,-0.0169808,VALID,19.3286,VALID,48,VALID,0.635352,
2005-01-12, 00:29:01,VALID,918.668,VALID,0,VALID,98.2276,VALID,0.0169808,VALID,19.3124,VALID,48,VALID,0.854106,
2005-01-12, 00:30:00,VALID,918.65,VALID,0,VALID,98.7261,VALID,0,VALID,19.3606,VALID,48,VALID,0.772656,
2005-01-12, 00:31:01,VALID,918.646,VALID,0,VALID,98.8685,VALID,0.0169808,VALID,19.4222,VALID,56,VALID,0.822656,
2005-01-12, 00:32:01,VALID,918.636,VALID,0,VALID,98.9588,VALID,0,VALID,19.4744,VALID,60,VALID,0.755996,
2005-01-12, 00:33:00,VALID,918.63,VALID,0,VALID,98.9346,VALID,0,VALID,19.5293,VALID,60,VALID,0.66226,
2005-01-12, 00:34:01,VALID,918.643,VALID,0,VALID,98.721,VALID,0,VALID,19.5775,VALID,60,VALID,0.555596,
2005-01-12, 00:35:01,VALID,918.644,VALID,0,VALID,98.4883,VALID,0.0169808,VALID,19.6061,VALID,60,VALID,0.521532,
2005-01-12, 00:36:01,VALID,918.662,VALID,0,VALID,98.4934,VALID,0.0169808,VALID,19.6518,VALID,60,VALID,0.467862,
2005-01-12, 00:37:00,VALID,918.675,VALID,0,VALID,98.3434,VALID,0,VALID,19.6841,VALID,62,VALID,0.623264,
2005-01-12, 00:38:01,VALID,918.669,VALID,0,VALID,98.2989,VALID,0,VALID,19.7035,VALID,85,VALID,0.707639,
2005-01-12, 00:39:01,VALID,918.673,VALID,0,VALID,98.1488,VALID,0.0169808,VALID,19.7223,VALID,105,VALID,0.702363,
2005-01-12, 00:40:00,VALID,918.665,VALID,0,VALID,97.9161,VALID,0.0339617,VALID,19.7285,VALID,112,VALID,0.714134,
2005-01-12, 00:41:01,VALID,918.657,VALID,0,VALID,97.7304,VALID,0,VALID,19.7228,VALID,116,VALID,0.659655,
2005-01-12, 00:42:00,VALID,918.638,VALID,0,VALID,97.8271,VALID,0,VALID,19.7196,VALID,119,VALID,0.699396,
2005-01-12, 00:43:00,VALID,918.626,VALID,0,VALID,97.8106,VALID,0.0169808,VALID,19.7097,VALID,121,VALID,0.761265,
2005-01-12, 00:44:01,VALID,918.612,VALID,0,VALID,97.9428,VALID,-0.0169808,VALID,19.7099,VALID,141,VALID,0.775213,
2005-01-12, 00:45:00,VALID,918.594,VALID,0,VALID,97.8678,VALID,0.0509425,VALID,19.7005,VALID,151,VALID,0.957812,
2005-01-12, 00:46:01,VALID,918.597,VALID,0,VALID,98.2899,VALID,0,VALID,19.7002,VALID,152,VALID,1.03216,
2005-01-12, 00:47:00,VALID,918.589,VALID,0,VALID,98.6117,VALID,0.0509425,VALID,19.7258,VALID,147,VALID,1.12062,
2005-01-12, 00:48:01,VALID,918.586,VALID,0,VALID,98.4324,VALID,0,VALID,19.732,VALID,148,VALID,0.898785,
2005-01-12, 00:49:01,VALID,918.585,VALID,0,VALID,98.4082,VALID,0,VALID,19.7293,VALID,145,VALID,0.953516,
2005-01-12, 00:50:01,VALID,918.58,VALID,0,VALID,98.6447,VALID,0,VALID,19.7328,VALID,139,VALID,1.01315,
2005-01-12, 00:51:01,VALID,918.578,VALID,0,VALID,98.8469,VALID,0,VALID,19.7452,VALID,136,VALID,1.0439,
2005-01-12, 00:52:01,VALID,918.577,VALID,0,VALID,98.9067,VALID,0.0339617,VALID,19.7452,VALID,127,VALID,0.845465,
2005-01-12, 00:53:01,VALID,918.583,VALID,0,VALID,98.8736,VALID,0.0339617,VALID,19.7387,VALID,131,VALID,0.802269,
2005-01-12, 00:54:01,VALID,918.572,VALID,0,VALID,99.1343,VALID,0.0169808,VALID,19.7447,VALID,127,VALID,0.911932,
2005-01-12, 00:55:01,VALID,918.556,VALID,0,VALID,99.2882,VALID,0,VALID,19.7611,VALID,116,VALID,0.856286,
2005-01-12, 00:56:01,VALID,918.551,VALID,0,VALID,99.3657,VALID,0,VALID,19.774,VALID,123,VALID,0.768003,
2005-01-12, 00:57:01,VALID,918.534,VALID,0,VALID,99.2958,VALID,0,VALID,19.7877,VALID,124,VALID,0.852706,
2005-01-12, 00:58:00,VALID,918.518,VALID,0,VALID,99.2551,VALID,0,VALID,19.7743,VALID,115,VALID,0.692587,
2005-01-12, 00:59:01,VALID,918.512,VALID,0,VALID,99.2869,VALID,0,VALID,19.7713,VALID,128,VALID,0.797045,
2005-01-12, 01:00:01,VALID,918.511,VALID,0,VALID,99.3606,VALID,0,VALID,19.771,VALID,127,VALID,0.910528,
2005-01-12, 01:01:01,VALID,918.509,VALID,0,VALID,99.4191,VALID,0,VALID,19.774,VALID,130,VALID,0.822798,
2005-01-12, 01:02:01,VALID,918.5,VALID,0,VALID,99.339,VALID,0,VALID,19.7708,VALID,138,VALID,0.928735,
2005-01-12, 01:03:01,VALID,918.505,VALID,0,VALID,99.3288,VALID,0,VALID,19.7777,VALID,142,VALID,1.03403,
2005-01-12, 01:04:01,VALID,918.491,VALID,0,VALID,99.208,VALID,-0.0169808,VALID,19.7616,VALID,139,VALID,1.02024,
2005-01-12, 01:05:01,VALID,918.494,VALID,0,VALID,99.3187,VALID,-0.101885,VALID,19.7628,VALID,155,VALID,0.973047,
2005-01-12, 01:06:01,VALID,918.495,VALID,0,VALID,99.1813,VALID,-0.0849042,VALID,19.7497,VALID,145,VALID,0.930575,
2005-01-12, 01:07:01,VALID,918.496,VALID,0,VALID,99.1305,VALID,-0.118866,VALID,19.7276,VALID,152,VALID,0.933843,
2005-01-12, 01:08:01,VALID,918.486,VALID,0,VALID,99.086,VALID,-0.0679233,VALID,19.7049,VALID,143,VALID,1.18732,
2005-01-12, 01:09:01,VALID,918.478,VALID,0,VALID,99.0466,VALID,-0.0849042,VALID,19.6461,VALID,145,VALID,1.21112,
2005-01-12, 01:10:01,VALID,918.473,VALID,0,VALID,98.9563,VALID,-0.101885,VALID,19.5919,VALID,148,VALID,1.35975,
2005-01-12, 01:11:01,VALID,918.478,VALID,0,VALID,99.1368,VALID,-0.118866,VALID,19.5432,VALID,150,VALID,1.08705,
2005-01-12, 01:12:01,VALID,918.469,VALID,0,VALID,99.2704,VALID,-0.101885,VALID,19.4985,VALID,143,VALID,1.35229,
2005-01-12, 01:13:01,VALID,918.471,VALID,0,VALID,99.4331,VALID,-0.0849042,VALID,19.4396,VALID,146,VALID,1.30659,
2005-01-12, 01:14:01,VALID,918.473,VALID,0,VALID,99.6315,VALID,-0.101885,VALID,19.4078,VALID,150,VALID,1.7862,
2005-01-12, 01:15:01,VALID,918.475,VALID,0,VALID,99.7675,VALID,-0.101885,VALID,19.3725,VALID,147,VALID,1.57755,
2005-01-12, 01:16:01,VALID,918.474,VALID,0,VALID,99.8998,VALID,-0.101885,VALID,19.3432,VALID,149,VALID,1.43859,
2005-01-12, 01:17:01,VALID,918.465,VALID,0,VALID,99.9507,VALID,-0.0849042,VALID,19.3243,VALID,147,VALID,1.05812,
2005-01-12, 01:18:00,VALID,918.444,VALID,0,VALID,100,VALID,-0.118866,VALID,19.2622,VALID,148,VALID,1.57895,
2005-01-12, 01:19:00,VALID,918.429,VALID,0,VALID,100,VALID,-0.0849042,VALID,19.2431,VALID,150,VALID,1.22238,
2005-01-12, 01:20:00,VALID,918.401,VALID,0,VALID,100,VALID,-0.0849042,VALID,19.2272,VALID,148,VALID,1.48516,
2005-01-12, 01:21:00,VALID,918.388,VALID,0,VALID,100,VALID,-0.101885,VALID,19.2597,VALID,140,VALID,1.59304,
2005-01-12, 01:22:00,VALID,918.37,VALID,0,VALID,100,VALID,-0.101885,VALID,19.2751,VALID,153,VALID,1.26903,
2005-01-12, 01:23:00,VALID,918.36,VALID,0,VALID,100,VALID,-0.101885,VALID,19.3042,VALID,148,VALID,1.24312,
2005-01-12, 01:24:00,VALID,918.362,VALID,0,VALID,100,VALID,-0.0849042,VALID,19.3367,VALID,147,VALID,1.64238,
2005-01-12, 01:25:00,VALID,918.337,VALID,0,VALID,100,VALID,-0.0849042,VALID,19.3688,VALID,153,VALID,1.23666,
2005-01-12, 01:26:00,VALID,918.348,VALID,0,VALID,100,VALID,-0.0679233,VALID,19.3916,VALID,146,VALID,1.2745,
2005-01-12, 01:27:00,VALID,918.34,VALID,0,VALID,100,VALID,-0.0849042,VALID,19.4105,VALID,138,VALID,1.12409,
2005-01-12, 01:28:00,VALID,918.323,VALID,0,VALID,100,VALID,0,VALID,19.4222,VALID,134,VALID,0.934126,
2005-01-12, 01:29:00,VALID,918.317,VALID,0,VALID,100,VALID,0,VALID,19.4384,VALID,149,VALID,0.823552,
2005-01-12, 01:30:00,VALID,918.289,VALID,0,VALID,100,VALID,0.0169808,VALID,19.4548,VALID,145,VALID,0.734747,
2005-01-12, 01:31:00,VALID,918.293,VALID,0,VALID,100,VALID,0.0169808,VALID,19.461,VALID,144,VALID,0.807292,
2005-01-12, 01:32:00,VALID,918.285,VALID,0,VALID,100,VALID,0.0169808,VALID,19.458,VALID,142,VALID,0.887835,
2005-01-12, 01:33:00,VALID,918.27,VALID,0,VALID,100,VALID,0.0169808,VALID,19.4513,VALID,146,VALID,0.678125,
2005-01-12, 01:34:00,VALID,918.257,VALID,0,VALID,100,VALID,0.0339617,VALID,19.4448,VALID,141,VALID,0.984197,
2005-01-12, 01:35:00,VALID,918.244,VALID,0,VALID,100,VALID,0.0169808,VALID,19.4615,VALID,142,VALID,1.03392,
2005-01-12, 01:36:00,VALID,918.238,VALID,0,VALID,100,VALID,0.0169808,VALID,19.461,VALID,135,VALID,1.11999,
2005-01-12, 01:37:00,VALID,918.224,VALID,0,VALID,100,VALID,0,VALID,19.4649,VALID,137,VALID,1.13519,
2005-01-12, 01:38:00,VALID,918.213,VALID,0,VALID,100,VALID,0.0339617,VALID,19.4709,VALID,136,VALID,0.958212,
2005-01-12, 01:39:00,VALID,918.203,VALID,0,VALID,100,VALID,0.0169808,VALID,19.451,VALID,131,VALID,1.00539,
2005-01-12, 01:40:00,VALID,918.19,VALID,0,VALID,99.9756,VALID,0,VALID,19.4386,VALID,135,VALID,1.04501,
2005-01-12, 01:41:00,VALID,918.179,VALID,0,VALID,99.9367,VALID,0.0339617,VALID,19.4384,VALID,127,VALID,0.69455,
2005-01-12, 01:42:00,VALID,918.189,VALID,0,VALID,99.9647,VALID,0,VALID,19.4421,VALID,121,VALID,0.957919,
2005-01-12, 01:43:00,VALID,918.169,VALID,0,VALID,99.9578,VALID,0,VALID,19.4356,VALID,111,VALID,0.970022,
2005-01-12, 01:44:00,VALID,918.19,VALID,0,VALID,99.9049,VALID,0,VALID,19.4255,VALID,123,VALID,0.921131,
2005-01-12, 01:45:00,VALID,918.174,VALID,0,VALID,99.8947,VALID,0.0169808,VALID,19.4386,VALID,135,VALID,1.26491,
2005-01-12, 01:46:00,VALID,918.174,VALID,0,VALID,99.826,VALID,0.0339617,VALID,19.4414,VALID,135,VALID,1.19817,
2005-01-12, 01:47:00,VALID,918.171,VALID,0,VALID,99.7078,VALID,0.0339617,VALID,19.4585,VALID,127,VALID,1.26136,
2005-01-12, 01:48:00,VALID,918.149,VALID,0,VALID,99.5399,VALID,0.0339617,VALID,19.4515,VALID,126,VALID,0.717076,
2005-01-12, 01:49:00,VALID,918.138,VALID,0,VALID,99.3441,VALID,0.0169808,VALID,19.4518,VALID,134,VALID,0.903646,
2005-01-12, 01:50:00,VALID,918.119,VALID,0,VALID,99.2424,VALID,0.0169808,VALID,19.4481,VALID,139,VALID,0.798177,
2005-01-12, 01:51:00,VALID,918.097,VALID,0,VALID,99.2487,VALID,0.0169808,VALID,19.4448,VALID,137,VALID,0.880859,
2005-01-12, 01:52:00,VALID,918.096,VALID,0,VALID,99.1406,VALID,0.0169808,VALID,19.4577,VALID,131,VALID,0.608398,
2005-01-12, 01:53:00,VALID,918.086,VALID,0,VALID,99.1674,VALID,0,VALID,19.4553,VALID,136,VALID,0.65189,
2005-01-12, 01:54:00,VALID,918.098,VALID,0,VALID,99.161,VALID,0,VALID,19.4483,VALID,134,VALID,0.476376,
2005-01-12, 01:55:00,VALID,918.087,VALID,0,VALID,99.1101,VALID,0.0339617,VALID,19.4354,VALID,143,VALID,0.659784,
2005-01-12, 01:56:00,VALID,918.091,VALID,0,VALID,99.2246,VALID,0.0169808,VALID,19.4155,VALID,146,VALID,0.6492,
2005-01-12, 01:57:00,VALID,918.087,VALID,0,VALID,99.292,VALID,0.0169808,VALID,19.3957,VALID,149,VALID,0.436012,
2005-01-12, 01:58:00,VALID,918.071,VALID,0,VALID,99.4001,VALID,0,VALID,19.4125,VALID,143,VALID,0.506696,
2005-01-12, 01:59:00,VALID,918.064,VALID,0,VALID,99.3479,VALID,0,VALID,19.4058,VALID,128,VALID,0.664789,
2005-01-12, 02:00:00,VALID,918.044,VALID,0,VALID,99.1699,VALID,0,VALID,19.3805,VALID,114,VALID,0.574855,
2005-01-12, 02:01:00,VALID,918.044,VALID,0,VALID,99.1432,VALID,0,VALID,19.3517,VALID,114,VALID,0.545387,
2005-01-12, 02:02:00,VALID,918.033,VALID,0,VALID,99.2971,VALID,0,VALID,19.3318,VALID,116,VALID,0.727072,
2005-01-12, 02:03:00,VALID,918.024,VALID,0,VALID,99.3683,VALID,0,VALID,19.3226,VALID,122,VALID,0.757813,
2005-01-12, 02:04:00,VALID,918.022,VALID,0,VALID,99.3441,VALID,0.0339617,VALID,19.3161,VALID,96,VALID,0.622461,
2005-01-12, 02:05:00,VALID,918.004,VALID,0,VALID,99.325,VALID,0,VALID,19.3,VALID,116,VALID,0.667221,
2005-01-12, 02:06:00,VALID,917.981,VALID,0,VALID,99.3517,VALID,0,VALID,19.2769,VALID,127,VALID,0.636914,
2005-01-12, 02:07:00,VALID,917.974,VALID,0,VALID,99.4306,VALID,0,VALID,19.2935,VALID,135,VALID,0.963728,
2005-01-12, 02:08:00,VALID,917.963,VALID,0,VALID,99.4255,VALID,0,VALID,19.2838,VALID,123,VALID,0.944586,
2005-01-12, 02:09:00,VALID,917.941,VALID,0,VALID,99.3708,VALID,0.0169808,VALID,19.2642,VALID,100,VALID,0.548549,
2005-01-12, 02:10:00,VALID,917.926,VALID,0,VALID,99.4229,VALID,0,VALID,19.2548,VALID,108,VALID,0.724888,
2005-01-12, 02:11:00,VALID,917.919,VALID,0,VALID,99.5285,VALID,0,VALID,19.2419,VALID,125,VALID,0.915396,
2005-01-12, 02:12:00,VALID,917.905,VALID,0,VALID,99.5437,VALID,0,VALID,19.2354,VALID,130,VALID,0.664773,
2005-01-12, 02:13:00,VALID,917.899,VALID,0,VALID,99.5094,VALID,0.0169808,VALID,19.2093,VALID,128,VALID,0.547903,
2005-01-12, 02:14:00,VALID,917.892,VALID,0,VALID,99.5158,VALID,0.0169808,VALID,19.2031,VALID,122,VALID,0.68564,
2005-01-12, 02:15:00,VALID,917.885,VALID,0,VALID,99.5221,VALID,0,VALID,19.1805,VALID,98,VALID,0.433321,
2005-01-12, 02:16:00,VALID,917.883,VALID,0,VALID,99.5908,VALID,0,VALID,19.1641,VALID,87,VALID,0.667969,
2005-01-12, 02:17:00,VALID,917.874,VALID,0,VALID,99.6773,VALID,0,VALID,19.1678,VALID,84,VALID,0.515807,
2005-01-12, 02:18:00,VALID,917.865,VALID,0,VALID,99.7332,VALID,0.0169808,VALID,19.1547,VALID,98,VALID,0.6875,
2005-01-12, 02:19:00,VALID,917.849,VALID,0,VALID,99.7688,VALID,-0.0339617,VALID,19.1457,VALID,93,VALID,0.657012,
2005-01-12, 02:20:00,VALID,917.831,VALID,0,VALID,99.8171,VALID,-0.0849042,VALID,19.1397,VALID,103,VALID,0.689098,
2005-01-12, 02:21:00,VALID,917.834,VALID,0,VALID,99.8006,VALID,-0.0679233,VALID,19.1238,VALID,101,VALID,0.505265,
2005-01-12, 02:22:00,VALID,917.833,VALID,0,VALID,99.8082,VALID,-0.0849042,VALID,19.1104,VALID,79,VALID,0.980183,
2005-01-12, 02:23:00,VALID,917.828,VALID,0,VALID,99.8871,VALID,-0.0849042,VALID,19.0938,VALID,93,VALID,0.827398,
2005-01-12, 02:24:00,VALID,917.82,VALID,0,VALID,99.9354,VALID,-0.0679233,VALID,19.101,VALID,100,VALID,0.323633,
2005-01-12, 02:25:00,VALID,917.82,VALID,0,VALID,99.9715,VALID,-0.0509425,VALID,19.0878,VALID,93,VALID,0.500545,
2005-01-12, 02:26:00,VALID,917.833,VALID,0,VALID,99.987,VALID,-0.101885,VALID,19.0915,VALID,82,VALID,0.381214,
2005-01-12, 02:27:00,VALID,917.846,VALID,0,VALID,100,VALID,-0.0679233,VALID,19.0746,VALID,105,VALID,0.792361,
2005-01-12, 02:28:00,VALID,917.861,VALID,0,VALID,100,VALID,-0.101885,VALID,19.1012,VALID,109,VALID,0.560404,
2005-01-12, 02:29:00,VALID,917.864,VALID,0,VALID,100,VALID,-0.0679233,VALID,19.0851,VALID,109,VALID,0.525484,
2005-01-12, 02:30:00,VALID,917.859,VALID,0,VALID,100,VALID,-0.0849042,VALID,19.0749,VALID,121,VALID,0.653125,
2005-01-12, 02:31:00,VALID,917.873,VALID,0,VALID,100,VALID,-0.101885,VALID,19.0947,VALID,142,VALID,1.21788,
2005-01-12, 02:32:00,VALID,917.857,VALID,0,VALID,100,VALID,-0.101885,VALID,19.1176,VALID,135,VALID,1.06455,
2005-01-12, 02:33:00,VALID,917.848,VALID,0,VALID,100,VALID,-0.101885,VALID,19.1077,VALID,133,VALID,1.35556,
2005-01-12, 02:34:00,VALID,917.836,VALID,0,VALID,100,VALID,-0.101885,VALID,19.1333,VALID,140,VALID,1.04233,
2005-01-12, 02:35:00,VALID,917.816,VALID,0,VALID,100,VALID,-0.101885,VALID,19.1238,VALID,133,VALID,1.11033,
2005-01-12, 02:36:00,VALID,917.788,VALID,0,VALID,100,VALID,-0.101885,VALID,19.1141,VALID,139,VALID,1.43877,
2005-01-12, 02:37:00,VALID,917.788,VALID,0,VALID,100,VALID,-0.101885,VALID,19.1333,VALID,150,VALID,1.28487,
2005-01-12, 02:38:00,VALID,917.765,VALID,0,VALID,100,VALID,-0.101885,VALID,19.1464,VALID,141,VALID,0.879687,
2005-01-12, 02:39:00,VALID,917.755,VALID,0,VALID,100,VALID,-0.101885,VALID,19.143,VALID,128,VALID,1.09661,
2005-01-12, 02:40:00,VALID,917.725,VALID,0,VALID,100,VALID,-0.0849042,VALID,19.1526,VALID,131,VALID,1.09014,
2005-01-12, 02:41:00,VALID,917.703,VALID,0,VALID,100,VALID,-0.101885,VALID,19.1529,VALID,125,VALID,0.958757,
2005-01-12, 02:42:00,VALID,917.689,VALID,0,VALID,100,VALID,-0.101885,VALID,19.1531,VALID,100,VALID,0.427455,
2005-01-12, 02:43:00,VALID,917.689,VALID,0,VALID,100,VALID,-0.0849042,VALID,19.1402,VALID,116,VALID,0.727121,
2005-01-12, 02:44:00,VALID,917.68,VALID,0,VALID,100,VALID,-0.101885,VALID,19.127,VALID,99,VALID,0.869496,
2005-01-12, 02:45:00,VALID,917.682,VALID,0,VALID,100,VALID,-0.101885,VALID,19.1077,VALID,124,VALID,0.856944,
2005-01-12, 02:46:00,VALID,917.68,VALID,0,VALID,100,VALID,-0.0509425,VALID,19.1044,VALID,117,VALID,0.527902,
2005-01-12, 02:47:00,VALID,917.686,VALID,0,VALID,100,VALID,-0.0849042,VALID,19.0779,VALID,124,VALID,0.642933,
2005-01-12, 02:48:00,VALID,917.696,VALID,0,VALID,100,VALID,-0.0849042,VALID,19.0754,VALID,129,VALID,0.767401,
2005-01-12, 02:49:00,VALID,917.69,VALID,0,VALID,100,VALID,-0.0679233,VALID,19.0687,VALID,123,VALID,0.897711,
2005-01-12, 02:50:00,VALID,917.69,VALID,0,VALID,100,VALID,-0.0339617,VALID,19.0818,VALID,134,VALID,0.792411,
2005-01-12, 02:51:00,VALID,917.678,VALID,0,VALID,100,VALID,-0.0339617,VALID,19.0553,VALID,131,VALID,0.765625,
2005-01-12, 02:52:00,VALID,917.649,VALID,0,VALID,100,VALID,-0.101885,VALID,19.059,VALID,136,VALID,0.493676,
2005-01-12, 02:53:00,VALID,917.637,VALID,0,VALID,100,VALID,-0.0679233,VALID,19.0555,VALID,107,VALID,0.619186,
2005-01-12, 02:54:00,VALID,917.603,VALID,0,VALID,99.9804,VALID,-0.0849042,VALID,19.0396,VALID,124,VALID,0.784268,
2005-01-12, 02:55:00,VALID,917.567,VALID,0,VALID,100,VALID,-0.101885,VALID,19.0364,VALID,124,VALID,0.906944,
2005-01-12, 02:56:00,VALID,917.536,VALID,0,VALID,100,VALID,-0.0509425,VALID,19.0329,VALID,111,VALID,0.84718,
2005-01-12, 02:57:00,VALID,917.517,VALID,0,VALID,100,VALID,-0.0509425,VALID,19.0165,VALID,106,VALID,0.700707,
2005-01-12, 02:58:00,VALID,917.497,VALID,0,VALID,100,VALID,-0.0679233,VALID,19.0302,VALID,111,VALID,1.12627,
2005-01-12, 02:59:00,VALID,917.489,VALID,0,VALID,100,VALID,-0.0509425,VALID,19.0142,VALID,99,VALID,0.956287,
2005-01-12, 03:00:00,VALID,917.48,VALID,0,VALID,99.969,VALID,-0.0509425,VALID,18.9976,VALID,106,VALID,0.9504,
2005-01-12, 03:01:00,VALID,917.484,VALID,0,VALID,99.9201,VALID,-0.101885,VALID,18.9683,VALID,92,VALID,0.943359,
2005-01-12, 03:02:00,VALID,917.486,VALID,0,VALID,99.9364,VALID,-0.0679233,VALID,18.9591,VALID,95,VALID,0.770349,
2005-01-12, 03:03:00,VALID,917.49,VALID,0,VALID,100,VALID,-0.0679233,VALID,18.946,VALID,80,VALID,0.786272,
2005-01-12, 03:04:00,VALID,917.477,VALID,0,VALID,100,VALID,-0.101885,VALID,18.9427,VALID,101,VALID,0.612995,
2005-01-12, 03:05:00,VALID,917.472,VALID,0,VALID,99.9596,VALID,-0.0849042,VALID,18.9166,VALID,72,VALID,0.608594,
2005-01-12, 03:06:00,VALID,917.448,VALID,0,VALID,99.9578,VALID,-0.0679233,VALID,18.8943,VALID,78,VALID,0.996911,
2005-01-12, 03:07:00,VALID,917.43,VALID,0,VALID,99.9804,VALID,-0.101885,VALID,18.9012,VALID,69,VALID,0.923828,
2005-01-12, 03:08:00,VALID,917.415,VALID,0,VALID,99.8934,VALID,-0.101885,VALID,18.862,VALID,70,VALID,0.961523,
2005-01-12, 03:09:00,VALID,917.413,VALID,0,VALID,99.8693,VALID,-0.0849042,VALID,18.8493,VALID,67,VALID,0.834821,
2005-01-12, 03:10:00,VALID,917.407,VALID,0,VALID,99.9545,VALID,-0.0849042,VALID,18.8297,VALID,63,VALID,0.833147,
2005-01-12, 03:11:00,VALID,917.413,VALID,0,VALID,99.9878,VALID,-0.0169808,VALID,18.8232,VALID,63,VALID,0.875727,
2005-01-12, 03:12:00,VALID,917.43,VALID,0,VALID,100,VALID,-0.0679233,VALID,18.82,VALID,68,VALID,0.800595,
2005-01-12, 03:13:00,VALID,917.425,VALID,0,VALID,100,VALID,-0.0679233,VALID,18.8006,VALID,70,VALID,0.460428,
2005-01-12, 03:14:00,VALID,917.437,VALID,0,VALID,100,VALID,-0.0849042,VALID,18.8039,VALID,72,VALID,0.56582,
2005-01-12, 03:15:00,VALID,917.438,VALID,0,VALID,100,VALID,0,VALID,18.8004,VALID,74,VALID,0.380814,
2005-01-12, 03:16:00,VALID,917.448,VALID,0,VALID,100,VALID,-0.101885,VALID,18.8009,VALID,89,VALID,0.835029,
2005-01-12, 03:17:00,VALID,917.449,VALID,0,VALID,100,VALID,-0.101885,VALID,18.7974,VALID,96,VALID,0.481399,
2005-01-12, 03:18:00,VALID,917.439,VALID,0,VALID,100,VALID,-0.101885,VALID,18.7907,VALID,96,VALID,0.672266,
2005-01-12, 03:19:00,VALID,917.438,VALID,0,VALID,100,VALID,-0.0169808,VALID,18.7843,VALID,114,VALID,0.852865,
2005-01-12, 03:20:00,VALID,917.438,VALID,0,VALID,100,VALID,0.0339617,VALID,18.7768,VALID,122,VALID,0.636458,
2005-01-12, 03:21:00,VALID,917.44,VALID,0,VALID,100,VALID,0,VALID,18.7612,VALID,101,VALID,0.446429,
2005-01-12, 03:22:00,VALID,917.436,VALID,0,VALID,100,VALID,0,VALID,18.7346,VALID,114,VALID,0.544695,
2005-01-12, 03:23:00,VALID,917.437,VALID,0,VALID,100,VALID,0.0169808,VALID,18.722,VALID,102,VALID,0.614769,
2005-01-12, 03:24:00,VALID,917.433,VALID,0,VALID,100,VALID,0,VALID,18.7093,VALID,102,VALID,0.480469,
2005-01-12, 03:25:00,VALID,917.436,VALID,0,VALID,100,VALID,0,VALID,18.7058,VALID,103,VALID,0.262173,
2005-01-12, 03:26:00,VALID,917.44,VALID,0,VALID,100,VALID,0,VALID,18.6996,VALID,103,VALID,0.385231,
2005-01-12, 03:27:00,VALID,917.438,VALID,0,VALID,100,VALID,0,VALID,18.71,VALID,103,VALID,0.249628,
2005-01-12, 03:28:00,VALID,917.443,VALID,0,VALID,100,VALID,0,VALID,18.7097,VALID,103,VALID,0.379794,
2005-01-12, 03:29:00,VALID,917.437,VALID,0,VALID,100,VALID,0,VALID,18.7026,VALID,103,VALID,0.42359,
2005-01-12, 03:30:00,VALID,917.439,VALID,0,VALID,100,VALID,0.0169808,VALID,18.7125,VALID,103,VALID,0.538154,
2005-01-12, 03:31:00,VALID,917.437,VALID,0,VALID,100,VALID,-0.0169808,VALID,18.7326,VALID,102,VALID,0.806141,
2005-01-12, 03:32:00,VALID,917.435,VALID,0,VALID,100,VALID,0,VALID,18.7492,VALID,102,VALID,0.570135,
2005-01-12, 03:33:00,VALID,917.446,VALID,0,VALID,100,VALID,-0.0169808,VALID,18.7319,VALID,102,VALID,0.547238,
2005-01-12, 03:34:00,VALID,917.448,VALID,0,VALID,100,VALID,-0.0339617,VALID,18.742,VALID,102,VALID,0.434411,
2005-01-12, 03:35:00,VALID,917.458,VALID,0,VALID,100,VALID,-0.0679233,VALID,18.7395,VALID,102,VALID,0.538154,
2005-01-12, 03:36:00,VALID,917.46,VALID,0,VALID,100,VALID,-0.0679233,VALID,18.7564,VALID,105,VALID,0.851935,